Phoenix Deer Valley, AZ

2:55 PM MST on September 19, 2019 (GMT -0700)
Phoenix-Deer Valley Municipal

Weather History for KDVT - July, 2019

Change the Weather History Date:

Wednesday, July 17, 2019

  Actual Average Record
Temperature  
Mean Temperature 94 °F -  
Max Temperature 100 °F 101 °F 111 °F (2005)
Min Temperature 89 °F 81 °F 75 °F (2017)
Cooling Degree Days 30    
Growing Degree Days 44 (Base 50)    
Moisture  
Dew Point 58 °F    
Average Humidity 29    
Maximum Humidity 36    
Minimum Humidity 24    
Precipitation  
Precipitation 0.00 in - - ()
Sea Level Pressure  
Sea Level Pressure 29.79 in    
Wind  
Wind Speed 7 mph (SW)    
Max Wind Speed 14 mph    
Max Gust Speed 22 mph    
Visibility 10 miles    
Events      
Averages and records for this station are not official NWS values.
T = Trace of Precipitation, MM = Missing Value Source: NWS Daily Summary

Daily Weather History Graph

Daily Weather History Graph

Search for Another Location

Airport or City:

Astronomy

Jul. 17, 2019 Rise Set
Actual Time 5:30 AM MST 7:38 PM MST
Civil Twilight 5:01 AM MST 8:06 PM MST
Nautical Twilight 4:27 AM MST 8:41 PM MST
Astronomical Twilight 3:50 AM MST 9:18 PM MST
Moon 8:30 PM MST (7/17) 6:06 AM MST (7/17)
Length of Visible Light 15h 04m
Length of Day
14h 08m
Full, 99% of the Moon is Illuminated
Jul 17
Full
Jul 24
Last Quarter
Jul 31
New
Aug 7
First Quarter
Aug 15
Full

Hourly Weather History & Observations

Time (MST) Temp. Heat Index Dew Point Humidity Pressure Visibility Wind Dir Wind Speed Gust Speed Precip Events Conditions
12:53 AM 93.0 °F 92.0 °F 57.9 °F 31% 29.70 in 10.0 mi SW 3.5 mph - N/A   Clear
1:53 AM 91.0 °F 90.0 °F 57.9 °F 33% 29.70 in 10.0 mi NNE 3.5 mph - N/A   Clear
2:53 AM 89.1 °F 88.0 °F 57.9 °F 35% 29.71 in 10.0 mi South 3.5 mph - N/A   Clear
3:53 AM 89.1 °F 88.2 °F 59.0 °F 36% 29.73 in 10.0 mi SW 3.5 mph - N/A   Clear
4:53 AM 89.1 °F 87.7 °F 57.0 °F 34% 29.76 in 10.0 mi South 3.5 mph - N/A   Clear
5:53 AM 89.1 °F 87.7 °F 57.0 °F 34% 29.80 in 7.0 mi SW 6.9 mph - N/A   Clear
6:53 AM 89.1 °F 88.0 °F 57.9 °F 35% 29.82 in 10.0 mi SSW 4.6 mph - N/A   Clear
7:53 AM 91.0 °F 90.0 °F 57.9 °F 33% 29.86 in 8.0 mi West 8.1 mph - N/A   Clear
8:53 AM 93.9 °F 92.6 °F 57.0 °F 29% 29.87 in 10.0 mi West 13.8 mph - N/A   Clear
9:53 AM 96.1 °F 94.8 °F 57.0 °F 27% 29.87 in 10.0 mi WSW 12.7 mph 19.6 mph N/A   Clear
10:53 AM 97.0 °F 95.7 °F 57.0 °F 26% 29.87 in 10.0 mi Variable 6.9 mph - N/A   Clear
11:53 AM 99.0 °F 97.7 °F 55.9 °F 24% 29.86 in 10.0 mi Variable 5.8 mph - N/A   Clear
12:53 PM 98.1 °F 96.8 °F 57.0 °F 25% 29.84 in 10.0 mi SW 10.4 mph 17.3 mph N/A   Clear
1:53 PM 100.0 °F 99.7 °F 57.9 °F 25% 29.82 in 10.0 mi WSW 9.2 mph 18.4 mph N/A   Clear
2:53 PM 99.0 °F 98.6 °F 59.0 °F 26% 29.80 in 10.0 mi WNW 11.5 mph 21.9 mph N/A   Clear
3:53 PM 100.9 °F 101.6 °F 60.1 °F 26% 29.77 in 10.0 mi SSW 12.7 mph - N/A   Clear
4:53 PM 100.0 °F 101.2 °F 61.0 °F 28% 29.75 in 10.0 mi SSW 11.5 mph - N/A   Clear
5:53 PM 100.0 °F 99.7 °F 57.9 °F 25% 29.74 in 10.0 mi WSW 12.7 mph - N/A   Clear
6:53 PM 99.0 °F 98.1 °F 57.9 °F 25% 29.74 in 10.0 mi SW 12.7 mph - N/A   Clear
7:53 PM 97.0 °F 96.1 °F 57.9 °F 27% 29.76 in 10.0 mi SW 11.5 mph - N/A   Clear
8:53 PM 96.1 °F 95.2 °F 57.9 °F 28% 29.77 in 10.0 mi SW 5.8 mph - N/A   Clear
9:53 PM 95.0 °F 93.7 °F 57.0 °F 28% 29.80 in 10.0 mi SW 8.1 mph - N/A   Clear
10:53 PM 93.0 °F 91.7 °F 57.0 °F 30% 29.81 in 10.0 mi SW 9.2 mph - N/A   Clear
11:53 PM 91.0 °F 89.2 °F 55.9 °F 30% 29.81 in 10.0 mi SW 10.4 mph - N/A   Clear